Wind_Speed
5 5 5 6 6 6 6 5 4 4 4 3 3 3 3 3 4 5 5 6 7 8 9 9 9 9 8 8 8 8 8 8 8 8 8 8 8 7 7 7 7 7 7
5 5 5 6 7 7 7 6 5 5 5 5 5 5 5 5 5 5 5 6 7 8 8 8 8 8 8 7 7 7 7 7 8 8 8 7 7 7 7 7 7 7 7
6 5 5 6 7 7 7 7 7 7 7 7 6 6 6 6 5 5 5 6 6 7 7 7 7 7 6 6 6 7 7 7 8 8 7 7 7 7 7 7 7 7 7
8 7 7 8 8 8 8 8 8 8 8 8 8 7 7 6 6 6 6 5 5 5 6 6 5 5 5 5 5 6 6 7 7 7 7 7 7 7 8 7 7 7 7
10 9 9 10 10 9 9 9 9 9 9 9 9 8 8 7 7 6 5 5 5 5 5 5 4 4 4 5 5 5 6 6 7 8 8 8 8 8 8 8 8 8 8
11 11 11 11 11 11 10 10 10 10 10 10 10 10 9 8 7 6 5 5 4 4 4 4 4 3 4 4 4 5 5 6 7 8 8 8 8 8 8 8 8 8 9
12 12 12 12 12 12 11 11 11 11 11 11 10 10 9 9 8 7 6 5 4 4 4 4 3 3 4 4 4 4 5 5 7 7 8 8 8 8 8 8 8 8 9
14 13 13 13 13 12 12 12 12 12 12 11 11 11 10 9 8 7 6 6 5 5 5 5 4 4 4 4 4 4 5 5 6 7 8 8 9 9 8 9 8 9 9
15 14 13 13 13 13 13 12 13 13 13 12 12 11 11 10 9 8 7 7 7 6 6 6 5 5 5 5 5 5 5 6 7 7 8 8 8 9 9 9 9 8 9
16 14 14 13 13 13 13 13 13 14 13 13 13 12 12 11 10 9 9 8 8 7 7 6 6 6 6 6 6 6 6 7 7 8 9 9 9 9 9 9 9 9 9
16 14 14 13 13 13 13 13 14 14 14 13 13 13 13 12 12 11 10 10 9 9 8 8 7 7 7 7 7 7 8 8 8 9 10 10 10 10 10 10 10 10 10
17 15 13 13 13 13 13 13 14 14 14 14 14 14 14 13 13 12 11 11 11 10 10 10 9 9 8 8 9 9 9 10 10 10 11 11 11 11 12 12 12 12 12
15 16 15 14 14 13 13 13 14 15 15 15 15 15 15 15 14 14 13 12 12 12 11 11 11 10 10 10 10 11 11 11 12 12 13 13 13 13 13 14 14 14 14
16 16 17 15 15 14 14 14 14 15 15 16 16 16 16 16 15 15 14 14 14 13 13 13 12 12 11 11 11 12 13 13 14 14 15 16 16 15 15 16 16 17 17
15 17 17 16 15 15 14 14 15 15 16 16 16 16 17 17 17 16 16 15 15 15 15 14 14 13 12 12 12 13 14 15 16 17 17 18 18 18 18 18 19 19 19
17 18 18 16 16 15 15 15 16 16 16 17 17 17 18 18 18 18 17 17 17 17 16 16 16 15 14 14 15 15 16 17 18 19 19 19 18 19 20 21 21 21 22
16 18 18 16 16 16 16 16 16 17 17 17 19 19 19 19 19 19 19 19 19 19 18 18 17 17 17 17 17 17 18 19 19 20 20 20 20 20 21 22 23 23 24
17 18 18 18 18 18 18 18 18 18 18 19 20 21 21 21 21 21 20 20 20 20 19 19 19 19 19 20 19 19 19 20 21 21 22 22 22 22 22 22 23 24 25
18 20 20 20 21 20 20 19 19 19 20 21 22 22 23 23 23 22 22 21 21 21 20 20 20 21 21 22 22 22 22 22 23 23 24 24 24 23 23 24 24 25 27
21 22 21 21 21 22 21 21 22 21 22 23 23 24 25 25 24 24 23 23 22 23 23 23 23 23 24 24 24 25 25 24 24 25 25 25 25 25 25 26 26 26 28
24 24 23 23 24 22 22 23 23 25 26 26 25 25 25 25 25 25 26 26 25 25 25 25 24 25 26 26 26 26 27 27 26 25 26 26 27 27 28 28 29 29 30
25 25 25 26 26 24 23 23 25 26 28 28 27 27 27 27 28 29 29 28 28 28 27 27 26 26 27 28 29 28 27 27 27 27 28 29 29 30 30 31 32 33 33
28 27 26 27 28 26 26 27 28 29 29 29 29 29 28 29 30 31 30 29 29 29 28 28 27 27 28 29 30 29 27 27 28 29 30 30 31 32 33 35 35 35 36
30 29 28 28 29 28 29 30 31 31 30 31 32 32 31 30 30 30 30 30 29 29 30 30 29 28 28 27 29 29 28 28 27 28 29 31 32 33 34 35 36 37 38
29 29 28 28 28 29 30 31 31 30 30 32 31 32 32 32 31 31 30 31 30 29 29 29 27 26 26 26 27 28 29 28 28 29 30 31 33 34 36 37 38 39 40
28 29 28 28 28 29 29 30 30 30 30 31 32 33 32 33 32 32 32 32 31 30 29 27 27 26 26 26 27 27 28 29 30 32 32 33 35 37 38 39 40 42 43
Wind_Direction
203 202 218 240 246 250 254 252 253 256 256 263 272 280 285 289 296 303 306 305 307 308 308 307 306 305 303 301 300 301 302 303 302 301 300 300 300 299 298 297 292 284 277
194 199 215 237 247 251 255 257 258 262 262 262 266 271 274 275 277 284 288 293 297 300 300 299 299 300 299 299 301 301 302 303 301 300 300 300 299 297 296 294 289 283 278
184 198 218 236 245 251 255 258 260 263 264 264 265 267 268 269 269 272 278 285 291 292 293 293 293 294 294 295 297 299 302 303 301 300 300 300 298 295 293 291 288 284 281
188 208 222 230 239 246 250 255 258 260 262 265 266 266 264 262 262 264 270 277 282 285 285 285 284 286 288 292 295 301 305 303 300 298 299 299 297 293 290 287 287 284 283
196 213 226 233 237 240 244 249 254 258 260 262 264 265 263 260 259 258 263 268 270 273 275 273 275 280 285 290 296 304 306 305 301 299 299 296 292 289 287 285 285 282 283
203 214 226 232 233 236 239 243 248 254 258 257 259 261 261 259 256 254 258 261 262 262 260 259 262 270 277 286 298 307 310 311 306 303 299 296 291 287 284 284 285 283 284
207 211 217 225 229 231 233 237 242 248 252 252 253 255 255 254 251 249 251 252 251 250 248 246 247 259 269 282 294 305 313 312 306 304 302 298 293 289 285 287 288 286 285
211 210 213 220 224 227 229 232 236 241 245 246 247 247 248 246 241 240 242 240 241 240 240 238 242 253 263 278 291 303 310 309 310 310 307 302 297 292 290 291 292 290 287
210 212 215 218 218 224 227 230 233 236 239 241 241 240 241 237 234 233 231 232 235 235 235 237 242 250 259 271 283 295 303 306 307 309 309 305 301 293 290 292 293 293 290
212 213 214 214 219 221 224 227 230 232 235 237 237 236 235 232 229 225 225 229 231 231 234 239 241 245 253 264 277 288 296 300 302 305 307 304 300 295 291 290 290 290 289
212 211 211 214 217 221 224 226 228 230 232 233 232 232 232 229 225 221 223 227 229 231 235 239 242 246 251 260 271 282 290 295 299 301 303 301 295 289 288 287 286 286 286
213 211 209 214 217 220 224 226 227 229 230 230 230 230 228 224 222 220 222 225 228 232 236 239 244 247 251 258 267 276 284 290 292 295 299 299 295 288 283 283 283 283 282
218 216 215 219 221 222 224 226 227 228 229 230 230 228 225 222 221 221 221 225 229 232 236 240 244 246 252 258 269 275 281 287 289 291 293 293 291 286 281 279 280 279 278
220 215 215 219 221 222 227 229 229 229 229 230 229 227 224 222 221 221 222 226 231 234 238 242 246 251 254 261 270 275 278 284 289 291 292 289 286 282 278 277 278 276 275
219 217 216 216 222 223 226 229 229 229 229 230 230 228 226 223 222 223 225 230 234 237 240 244 249 254 257 263 270 275 278 283 287 289 290 287 283 279 277 278 278 275 274
222 218 215 216 220 224 226 227 228 227 228 228 229 227 226 225 225 226 229 233 237 240 244 249 254 258 265 270 273 276 280 282 286 287 288 286 282 279 278 278 276 275 274
221 218 218 222 227 228 228 228 228 229 228 228 229 228 228 227 228 230 233 236 239 242 246 252 259 265 268 272 276 278 280 284 286 288 286 285 282 279 279 279 276 275 274
224 221 220 226 229 231 230 228 229 230 230 229 230 230 231 232 233 235 237 240 243 245 249 254 261 266 270 273 276 278 279 282 285 286 285 283 282 280 280 281 281 277 276
229 228 227 228 231 233 232 231 229 230 230 230 231 233 235 236 237 239 241 244 246 249 253 258 262 267 271 274 275 276 277 279 283 283 284 282 281 280 280 281 282 279 275
237 237 240 234 236 235 234 235 232 232 232 232 233 234 236 238 239 241 243 245 248 251 254 258 261 266 271 273 274 275 276 277 282 283 282 281 279 278 279 278 278 277 276
240 244 246 241 239 239 240 240 239 236 233 230 233 234 235 238 241 244 246 247 249 251 254 257 262 268 271 272 274 275 274 275 277 279 279 278 277 276 276 278 277 275 274
242 246 248 248 247 245 245 247 246 239 233 231 233 235 237 241 243 246 246 250 252 254 255 258 264 269 271 273 274 275 274 272 275 277 277 276 276 275 274 275 275 274 273
242 246 249 251 251 255 254 255 253 247 241 235 234 234 238 242 246 247 250 254 253 254 259 261 265 269 271 273 275 276 273 269 271 274 274 275 275 276 275 274 273 274 273
242 245 249 253 254 259 264 263 258 253 246 241 237 237 239 243 246 249 250 254 255 258 261 263 265 267 273 274 272 272 273 273 274 274 274 275 276 277 275 274 275 275 275
241 245 249 252 256 261 266 263 261 251 244 242 242 240 241 244 246 248 251 255 260 263 264 266 270 270 275 276 275 274 274 275 277 279 278 278 278 278 277 276 275 275 274
241 245 249 252 259 265 268 266 262 251 245 242 240 242 245 248 250 252 255 258 261 265 268 270 273 276 279 279 280 278 277 277 278 279 279 279 279 278 277 275 275 275 275
Height
5881 5882 5883 5885 5886 5888 5888 5889 5890 5891 5892 5893 5894 5894 5895 5896 5896 5896 5897 5897 5897 5898 5898 5898 5898 5898 5898 5897 5897 5897 5896 5896 5895 5895 5895 5895 5894 5894 5894 5894 5894 5894 5894
5879 5881 5882 5884 5885 5886 5887 5888 5889 5890 5891 5892 5893 5893 5894 5895 5895 5895 5896 5896 5896 5897 5897 5897 5897 5897 5897 5896 5896 5896 5895 5895 5894 5894 5894 5894 5893 5893 5893 5893 5893 5893 5893
5877 5879 5880 5882 5883 5885 5885 5886 5887 5888 5889 5890 5891 5892 5893 5893 5894 5894 5895 5895 5895 5896 5896 5896 5896 5896 5896 5895 5895 5895 5894 5894 5893 5893 5893 5893 5892 5892 5892 5892 5892 5892 5892
5875 5877 5878 5880 5881 5882 5883 5884 5885 5886 5887 5888 5889 5890 5891 5892 5892 5893 5893 5894 5894 5894 5894 5895 5895 5895 5895 5894 5894 5894 5894 5893 5892 5892 5892 5892 5892 5891 5891 5892 5892 5891 5891
5872 5874 5876 5877 5879 5880 5881 5882 5883 5884 5885 5886 5887 5888 5889 5890 5890 5891 5891 5892 5892 5893 5893 5894 5894 5894 5894 5893 5893 5893 5893 5892 5892 5891 5891 5891 5891 5890 5890 5890 5890 5890 5890
5868 5870 5873 5874 5876 5877 5878 5879 5880 5881 5883 5884 5885 5886 5887 5888 5888 5889 5889 5890 5891 5891 5892 5893 5893 5893 5893 5893 5892 5892 5892 5892 5891 5890 5890 5889 5889 5889 5889 5889 5889 5889 5889
5866 5867 5869 5871 5873 5874 5875 5876 5877 5879 5880 5882 5883 5884 5885 5886 5886 5887 5888 5888 5889 5890 5891 5892 5892 5892 5892 5892 5892 5891 5891 5891 5890 5890 5889 5888 5888 5888 5887 5887 5887 5887 5887
5863 5864 5865 5867 5869 5871 5872 5873 5874 5876 5878 5879 5880 5882 5883 5884 5884 5885 5886 5887 5888 5889 5890 5890 5891 5891 5891 5891 5890 5890 5890 5890 5889 5888 5888 5887 5886 5886 5886 5885 5885 5885 5885
5860 5861 5862 5864 5865 5867 5869 5870 5871 5873 5875 5876 5878 5879 5881 5882 5883 5883 5884 5885 5886 5887 5888 5889 5889 5890 5890 5889 5889 5889 5889 5888 5888 5887 5886 5885 5885 5884 5884 5884 5884 5883 5883
5857 5858 5859 5860 5862 5864 5866 5867 5868 5870 5872 5873 5875 5877 5878 5880 5881 5882 5883 5884 5884 5885 5886 5887 5888 5888 5888 5888 5887 5887 5887 5887 5886 5886 5885 5884 5883 5883 5882 5882 5882 5882 5882
5854 5854 5856 5857 5859 5861 5862 5864 5866 5867 5869 5871 5873 5874 5876 5877 5879 5880 5881 5882 5883 5883 5884 5885 5886 5886 5887 5886 5886 5886 5885 5885 5885 5884 5883 5882 5882 5881 5881 5880 5880 5880 5880
5851 5851 5853 5854 5856 5858 5859 5861 5863 5865 5866 5868 5870 5872 5873 5875 5877 5878 5879 5880 5880 5881 5882 5883 5884 5885 5885 5885 5884 5884 5883 5883 5882 5882 5881 5881 5880 5879 5878 5878 5878 5878 5878
5847 5848 5850 5851 5853 5855 5857 5858 5860 5861 5863 5865 5867 5869 5871 5873 5874 5876 5877 5877 5878 5879 5880 5881 5881 5882 5882 5882 5882 5882 5881 5880 5880 5880 5879 5878 5877 5877 5876 5875 5875 5875 5875
5844 5846 5847 5849 5851 5852 5854 5855 5857 5858 5860 5862 5864 5866 5868 5870 5872 5873 5874 5875 5875 5876 5877 5878 5879 5879 5880 5880 5880 5879 5878 5878 5877 5877 5876 5875 5874 5874 5873 5872 5872 5872 5872
5841 5843 5845 5846 5848 5849 5850 5852 5854 5856 5858 5860 5862 5864 5865 5867 5869 5870 5871 5872 5872 5873 5874 5875 5875 5876 5876 5877 5877 5876 5876 5875 5874 5873 5872 5871 5871 5870 5870 5869 5868 5868 5868
5839 5840 5841 5843 5845 5846 5847 5849 5851 5852 5854 5857 5859 5860 5862 5864 5865 5866 5867 5868 5869 5870 5870 5871 5872 5872 5873 5873 5873 5873 5872 5871 5870 5869 5868 5867 5867 5866 5866 5865 5864 5864 5863
5835 5837 5838 5840 5842 5843 5844 5846 5847 5849 5851 5853 5855 5857 5858 5860 5861 5863 5864 5865 5865 5866 5866 5867 5868 5868 5869 5869 5868 5868 5868 5867 5866 5865 5864 5863 5862 5862 5861 5861 5860 5859 5858
5832 5833 5835 5837 5838 5840 5841 5843 5844 5846 5848 5849 5851 5853 5854 5855 5857 5858 5860 5860 5861 5861 5862 5863 5863 5864 5864 5864 5863 5863 5863 5862 5861 5860 5859 5858 5857 5857 5856 5856 5855 5854 5854
5828 5830 5831 5832 5834 5836 5837 5838 5840 5841 5843 5845 5846 5848 5850 5851 5852 5854 5855 5856 5856 5857 5858 5858 5859 5859 5859 5858 5858 5858 5857 5857 5856 5855 5854 5853 5852 5852 5851 5850 5849 5849 5848
5824 5825 5826 5827 5829 5831 5832 5833 5835 5836 5838 5840 5842 5843 5845 5846 5848 5849 5850 5851 5851 5852 5852 5852 5853 5853 5853 5853 5853 5852 5852 5851 5850 5849 5848 5848 5847 5846 5845 5844 5843 5842 5842
5820 5821 5822 5823 5825 5826 5828 5828 5830 5831 5832 5834 5836 5838 5839 5841 5842 5843 5843 5844 5845 5846 5846 5846 5847 5847 5846 5846 5846 5846 5845 5845 5844 5843 5842 5842 5841 5840 5839 5838 5836 5835 5835
5815 5817 5818 5819 5820 5821 5822 5823 5824 5824 5825 5827 5830 5832 5834 5835 5836 5837 5838 5838 5839 5840 5840 5840 5841 5841 5840 5840 5839 5839 5838 5839 5838 5837 5836 5835 5834 5832 5832 5830 5829 5828 5827
5809 5811 5813 5814 5815 5816 5816 5816 5817 5818 5819 5822 5824 5825 5827 5829 5830 5831 5832 5832 5833 5833 5833 5834 5834 5834 5833 5832 5832 5831 5831 5831 5831 5830 5828 5827 5826 5825 5824 5823 5821 5820 5819
5803 5806 5808 5809 5809 5810 5810 5811 5810 5810 5813 5816 5817 5819 5821 5822 5823 5824 5825 5825 5826 5826 5827 5827 5827 5827 5826 5825 5825 5824 5824 5823 5823 5822 5821 5819 5818 5816 5815 5814 5813 5811 5810
5797 5800 5802 5803 5804 5805 5804 5804 5802 5802 5804 5807 5810 5812 5814 5816 5817 5817 5818 5819 5819 5820 5820 5820 5820 5819 5819 5818 5818 5817 5816 5815 5815 5814 5813 5812 5810 5808 5806 5805 5803 5802 5800
5791 5793 5795 5797 5798 5799 5799 5798 5798 5797 5797 5800 5801 5805 5807 5808 5809 5811 5811 5812 5813 5813 5813 5813 5813 5812 5811 5811 5810 5809 5809 5808 5807 5806 5804 5803 5801 5799 5797 5795 5793 5791 5789